Location: Betzi
(47.2343°N, 9.5260°E)
Time: 22:03:06
(UTC+00:00)

Gblst 52 Del rocket - Pass Details

Date: 27 May 2022
Orbit: 805 x 1365 km, 51.5° (Epoch: 29 June)

Event Time Altitude Azimuth Distance (km) Brightness Sun altitude
Rises 02:51:28 0° 294° (WNW) 3,447 7.1 -6.5°
Reaches altitude 10° 02:54:02 10° 294° (WNW) 2,460 6.4 -6.2°
Maximum altitude 02:59:42 85° 206° (SSW) 817 4.1 -5.5°
Drops below altitude 10° 03:05:11 10° 119° (ESE) 2,389 6.9 -4.7°
Sets 03:07:39 0° 119° (ESE) 3,341 7.6 -4.4°
